Location: L�Ave Maria
(50.7161°N, 1.5911°E)
Time: 23:39:10
(UTC+00:00)

Cosmos 2084 - Pass Details

Date: 10 July 2020
Orbit: 571 x 612 km, 62.8° (Epoch: 14 August)

Event Time Altitude Azimuth Distance (km) Brightness Sun altitude
Rises 20:40:12 0° 311° (NW) 2,885 9.9 -5.1°
Reaches altitude 10° 20:42:33 10° 305° (NW) 1,976 7.9 -5.3°
Maximum altitude 20:46:46 42° 235° (SW) 874 4.4 -5.8°
Drops below altitude 10° 20:50:57 10° 164° (SSE) 1,954 5.6 -6.2°
Enters shadow 20:51:54 - 161° (SSE) 2,314 5.9 -6.3°
